Location: Kellogg
(38.0159°N, 90.0546°W)
Time: 15:53:13
(UTC+00:00)

Altair - Pass Details

Date: 13 September 2024
Orbit: 1501 x 1682 km, 47.2° (Epoch: 15 October)

Event Time Altitude Azimuth Distance (km) Brightness Sun altitude
Exits shadow 06:32:43 15° 91° (E) 3,537 9.4 -47.5°
Drops below altitude 10° 06:34:49 10° 81° (E) 3,929 9.8 -47.4°
Sets 06:39:02 0° 67° (ENE) 4,933 10.5 -47.2°
